Tracking 30116 objects as of 10-Feb-2025
HD Live streaming from Space Station
objects crossing your sky now

SL-12 R/B(2)

Track SL-12 R/B(2) now!


NORAD ID: 23111
Int'l Code: 1994-030D
Perigee: 34,635.1 km
Apogee: 35,009.6 km
Inclination: 12.9 °
Period: 1,386.8 minutes
Semi major axis: 41193 km
RCS: 2.2242 m2 (large)
Launch date: May 20, 1994
Source: Commonwealth of Independent States (former USSR) (CIS)
Launch site: TYURATAM MISSILE AND SPACE COMPLEX (TTMTR)

Note: This is a ROCKET BODY
Your satellite tracking list
Your tracking list is empty




NASA's NSSDC Master Catalog

Two Line Element Set (TLE):
1 23111U 94030D   25039.87890897 -.00000166  00000-0  00000+0 0  9992
2 23111  12.9029 346.9422 0045456 178.9662 191.0521  1.03839357116530
Source of the keplerian elements: AFSPC